DSN-3 (KIRAMEKI-3)

Last updated on Sun Jun 21 2026 00:03:09 GMT+0000 (Coordinated Universal Time)

1 61733U 24198A 26171.46066924 -.00000255 00000+0 00000+0 0 9999 2 61733 0.0267 281.4287 0000609 189.8925 107.2456 1.00270761 5954
UTC large
Height (km)
Speed (km/s)
/
Latitude / Longitude
Inclination (degrees)
Orbital Period (minutes)
Azimuth
Elevation
Range (km)
Doppler Factor

Next 0 passes for location: London (51.5072 / 0.1276)

No passes found over London.
DSN-3 (KIRAMEKI-3)